Regional Weather Roundup
Issued by NWS

Home | Current Version | Previous Version | Graphics & Text | Print | Product List | Glossary On
Versions: 1 2 3 4 5 6 7 8 9 10 11 12 13 14 15 16 17 18 19 20 21 22 23 24 25 26 27 28 29 30 31 32 33 34 35 36 37 38 39 40 41 42 43 44 45 46 47 48 49
000
ASUS45 KBOU 150307
RWRCO

WEATHER ROUNDUP FOR COLORADO
NATIONAL WEATHER SERVICE DENVER/BOULDER CO
900 PM MDT SUN SEP 14 2014

NOTE: "FAIR" INDICATES FEW OR NO CLOUDS BELOW 12000 FEET WITH NO
SIGNIFICANT WEATHER AND/OR OBSTRUCTIONS TO VISIBILITY.

COZ001>005-013-030-031-150400-
...NORTHWEST COLORADO...

CITY           SKY/WX    TMP DP  RH WIND       PRES   REMARKS
CRAIG          MOCLDY    65  35  33 CALM      30.17R
HAYDEN         MOCLDY    66  30  26 S6        30.20R
MEEKER         PTCLDY    59  42  53 NE3       30.19R
MOUNT WERNER   NOT AVBL
STEAMBOAT SPGS MOCLDY    60  40  48 E6        30.22R
WALDEN         CLOUDY    55  28  35 SW10      30.29S
$$

COZ006>008-011-150400-
...WEST CENTRAL VALLEYS...

CITY           SKY/WX    TMP DP  RH WIND       PRES   REMARKS
GRAND JUNCTION CLEAR     67  38  34 CALM      30.05R
MONTROSE       PTCLDY    68  46  45 SE8       30.16R
EAGLE          PTCLDY    64  39  39 E8        30.23R
RIFLE          CLEAR     64  39  39 SE7       30.12R
DELTA          PTCLDY    73  38  28 E7        30.10R
NUCLA          PTCLDY    68  41  37 E8        30.19R
$$

COZ017>023-064>068-150400-
...SOUTHWEST COLORADO...

CITY           SKY/WX    TMP DP  RH WIND       PRES   REMARKS
DURANGO        CLEAR     68  35  29 W3        30.20R
CORTEZ         CLEAR     61  46  57 E8        30.15R
PAGOSA SPRINGS NOT AVBL
TELLURIDE      PTCLDY    57  39  51 SE6       30.39R
WOLF CREEK PAS CLOUDY    45  32  61 NE10      30.59R
$$

COZ009-010-012-014-032>034-037-058>063-150400-
...CENTRAL COLORADO...

CITY           SKY/WX    TMP DP  RH WIND       PRES   REMARKS
ASPEN          PTCLDY    55  38  52 SW9       30.31R
BUENA VISTA    CLEAR     59  32  35 NW10      30.31R
COPPER MTN     PTCLDY    50  30  46 W17       30.59S
BERTHOUD PASS  FAIR      41  37  87 W17       30.61S
COTTONWOOD PAS CLEAR     59  27  29 NW5       30.44R
GUNNISON       CLEAR     57  36  44 N5        30.31R
KREMMLING      MOCLDY    59  32  36 SW6       30.27R
LEADVILLE      PTCLDY    46  31  55 E7        30.44R
MONARCH PASS   CLEAR     46  28  49 NW9       30.69R
SALIDA         CLEAR     63  31  30 SW8       30.34R
SUNLIGHT       PTCLDY    50  32  50 CALM      30.52R
WILKERSON PASS NOT AVBL
$$

COZ069>075-150400-
...SAN LUIS VALLEY/SANGRE DE CRISTO MOUNTAINS...

CITY           SKY/WX    TMP DP  RH WIND       PRES   REMARKS
ALAMOSA        MOCLDY    64  39  39 NW7       30.26R
LA VETA PASS   NOT AVBL
SAGUACHE       NOT AVBL
$$

COZ035-036-038>040-150400-
...NORTHERN COLORADO FRONT RANGE...

CITY           SKY/WX    TMP DP  RH WIND       PRES   REMARKS
DENVER INTL AP CLOUDY    66  43  43 SE5       30.10R
DMNS CITY PARK   N/A     69  41  36 E3        30.10S
AURORA         MOCLDY    67  42  39 NE6       30.13R
FRONT RANGE AP CLOUDY    70  43  37 NE5       30.12S
ERIE MUNI ARPT MOCLDY    64  44  47 CALM      30.08R
BOULDER MUN AP MOCLDY    66  43  42 S6        30.08S
CENTENNIAL     MOCLDY    70  39  32 CALM      30.14R
BROOMFIELD     NOT AVBL
FORT COLLINS   MOCLDY    70  41  35 W8        30.07S
LONGMONT       MOCLDY    68  41  38 W3        30.09R
$$

COZ041-046-047-076>085-087-088-150400-
...PIKES PEAK/PALMER DIVIDE AND SOUTHERN FOOTHILLS...

CITY           SKY/WX    TMP DP  RH WIND       PRES   REMARKS
COLO. SPRINGS  MOCLDY    64  32  30 N7        30.16R
A. F. ACADEMY  MOCLDY    66  34  30 N6        30.19R
ELLICOTT       NOT AVBL
FALCON         MOCLDY    65  30  26 N5        30.22R
FORT CARSON    MOCLDY    71  33  25 N7        30.12R
LIMON          MOCLDY    66  41  40 E6        30.11R
MONUMENT HILL  MOCLDY    63  36  36 E5        30.22S
TRINIDAD       PTCLDY    65  47  52 W10       30.12R
$$

COZ042>045-048>051-090-091-150400-
...NORTHEAST COLORADO...

CITY           SKY/WX    TMP DP  RH WIND       PRES   REMARKS
GREELEY ARPT   CLOUDY    66  45  45 N10G20    30.06R
AKRON          CLOUDY    65  56  72 S8        30.05F
BURLINGTON     CLEAR     64  51  62 S10       30.01R
WRAY           MOCLDY    67  57  71 SE9       30.01S
STERLING       CLOUDY    63  55  77 CALM      30.04R
HOLYOKE        MOCLDY    66  57  72 CALM      30.01R
FORT MORGAN    CLOUDY    64  48  57 E7        30.04F
$$

COZ086-089-092>099-150400-
...SOUTHEAST COLORADO...

CITY           SKY/WX    TMP DP  RH WIND       PRES   REMARKS
PUEBLO         PTCLDY    68  35  29 CALM      30.02R
LA JUNTA       CLEAR     75  51  43 S10       30.00R
LAMAR          CLEAR     74  54  49 S15       29.97R
SPRINGFIELD      N/A     69  55  60 S17       30.07R
$$



USA.gov is the U.S. government's official web portal to all federal, state and local government web resources and services.